Date,TemperatureHighF,TemperatureAvgF,TemperatureLowF,DewpointHighF,DewpointAvgF,DewpointLowF,HumidityHigh,HumidityAvg,HumidityLow,PressureMaxIn,PressureMinIn,WindSpeedMaxMPH,WindSpeedAvgMPH,GustSpeedMaxMPH,PrecipitationSumIn
2012-1-1,48,39,29,-100,-100,-100,0,0,100,0.00,40.00,20,7,0,0.00
2012-1-2,29,24,21,-100,-100,-100,0,0,100,0.00,40.00,13,6,0,0.00
2012-1-3,27,21,16,-100,-100,-100,0,0,100,0.00,40.00,8,3,0,0.00
2012-1-4,39,30,22,-100,-100,-100,0,0,100,0.00,40.00,9,4,0,0.00
2012-1-5,47,37,27,-100,-100,-100,0,0,100,0.00,40.00,11,3,0,0.00
2012-1-6,55,45,38,-100,-100,-100,0,0,100,0.00,40.00,11,4,0,0.00
2012-1-7,45,38,31,-100,-100,-100,0,0,100,0.00,40.00,9,3,0,0.00
2012-1-8,39,31,25,-100,-100,-100,0,0,100,0.00,40.00,3,0,0,0.00
2012-1-9,44,36,26,-100,-100,-100,0,0,100,0.00,40.00,10,2,0,0.00
2012-1-10,50,38,30,-100,-100,-100,0,0,100,0.00,40.00,6,2,0,0.00
2012-8-6,80,74,67,-100,-100,-100,0,0,100,0.00,40.00,4,0,0,0.00
2012-8-7,88,72,58,-100,-100,-100,0,0,100,0.00,40.00,4,0,0,0.00
2012-8-8,89,78,70,-100,-100,-100,0,0,100,0.00,40.00,7,1,0,0.00
2012-8-9,77,72,65,-100,-100,-100,0,0,100,0.00,40.00,6,2,0,0.00
2012-8-10,66,62,58,-100,-100,-100,0,0,100,0.00,40.00,12,3,0,0.00
2012-8-11,75,66,59,-100,-100,-100,0,0,100,0.00,40.00,8,2,0,0.00
2012-8-12,79,67,57,-100,-100,-100,0,0,100,0.00,40.00,6,0,0,0.00
2012-8-13,76,69,65,-100,-100,-100,0,0,100,0.00,40.00,8,2,0,0.00
2012-8-14,75,68,64,-100,-100,-100,0,0,100,0.00,40.00,3,0,0,0.00
2012-8-15,82,70,61,-100,-100,-100,0,0,100,0.00,40.00,5,0,0,0.00
2012-8-16,70,67,66,-100,-100,-100,0,0,100,0.00,40.00,4,0,0,0.00
2012-8-17,77,69,59,-100,-100,-100,0,0,100,0.00,40.00,6,1,0,0.00
2012-8-18,73,61,53,-100,-100,-100,0,0,100,0.00,40.00,3,0,0,0.00
2012-8-19,79,68,58,-100,-100,-100,0,0,100,0.00,40.00,7,1,0,0.00
2012-8-20,78,67,56,-100,-100,-100,0,0,100,0.00,40.00,7,0,0,0.00
2012-8-21,78,70,60,-100,-100,-100,0,0,100,0.00,40.00,6,1,0,0.00
2012-8-22,84,73,57,-100,-100,-100,0,0,100,0.00,40.00,2,0,0,0.00
2012-8-23,88,77,59,-100,-100,-100,0,0,100,0.00,40.00,3,0,0,0.00
2012-8-24,91,80,64,-100,-100,-100,0,0,100,0.00,40.00,3,0,0,0.00
2012-8-25,94,85,71,-100,-100,-100,0,0,100,0.00,40.00,6,1,0,0.00
2012-8-26,91,79,69,-100,-100,-100,0,0,100,0.00,40.00,9,1,0,0.00
2012-8-27,84,77,69,-100,-100,-100,0,0,100,0.00,40.00,11,1,0,0.00
2012-8-28,82,75,64,-100,-100,-100,0,0,100,0.00,40.00,7,2,0,0.00
2012-8-29,83,74,63,-100,-100,-100,0,0,100,0.00,40.00,6,1,0,0.00
2012-8-30,86,77,60,-100,-100,-100,0,0,100,0.00,40.00,4,0,0,0.00
2012-8-31,92,84,77,-100,-100,-100,0,0,100,0.00,40.00,9,1,0,0.00
2012-9-1,81,77,74,-100,-100,-100,0,0,100,0.00,40.00,3,0,0,0.00
2012-9-2,80,75,72,-100,-100,-100,0,0,100,0.00,40.00,8,1,0,0.00
2012-9-3,85,79,72,-100,-100,-100,0,0,100,0.00,40.00,9,1,0,0.00
2012-9-4,87,79,71,-100,-100,-100,0,0,100,0.00,40.00,7,0,0,0.00
2012-9-5,79,76,70,-100,-100,-100,0,0,100,0.00,40.00,7,1,0,0.00
2012-9-6,88,78,67,-100,-100,-100,0,0,100,0.00,40.00,4,0,0,0.00
2012-9-7,76,71,65,-100,-100,-100,0,0,100,0.00,40.00,5,0,0,0.00
2012-9-8,61,58,57,-100,-100,-100,0,0,100,0.00,40.00,0,0,0,0.00
2012-9-9,72,64,56,-100,-100,-100,0,0,100,0.00,40.00,6,1,0,0.00
2012-9-10,75,66,53,-100,-100,-100,0,0,100,0.00,40.00,4,0,0,0.00
2012-9-11,80,71,54,-100,-100,-100,0,0,100,0.00,40.00,8,1,0,0.00
2012-9-12,84,74,59,-100,-100,-100,0,0,100,0.00,40.00,8,1,0,0.00
2012-9-13,84,74,66,-100,-100,-100,0,0,100,0.00,40.00,5,1,0,0.00
2012-9-14,70,66,55,-100,-100,-100,0,0,100,0.00,40.00,7,2,0,0.00
2012-9-15,75,67,51,-100,-100,-100,0,0,100,0.00,40.00,3,0,0,0.00
2012-9-16,77,66,53,-100,-100,-100,0,0,100,0.00,40.00,5,0,0,0.00
2012-9-17,72,66,58,-100,-100,-100,0,0,100,0.00,40.00,3,0,0,0.00
2012-9-18,65,59,47,-100,-100,-100,0,0,100,0.00,40.00,11,3,0,0.00
2012-9-19,63,50,42,-100,-100,-100,0,0,100,0.00,40.00,2,0,0,0.00
2012-9-20,73,61,53,-100,-100,-100,0,0,100,0.00,40.00,3,1,0,0.00
2012-9-21,71,60,51,-100,-100,-100,0,0,100,0.00,40.00,5,1,0,0.00
2012-9-22,57,52,47,-100,-100,-100,0,0,100,0.00,40.00,8,2,0,0.00
2012-9-23,60,51,43,-100,-100,-100,0,0,100,0.00,40.00,5,1,0,0.00
2012-9-24,66,57,39,-100,-100,-100,0,0,100,0.00,40.00,5,2,0,0.00
2012-9-25,67,58,50,-100,-100,-100,0,0,100,0.00,40.00,8,1,0,0.00
2012-9-26,67,64,60,-100,-100,-100,0,0,100,0.00,40.00,3,0,0,0.00
2012-9-27,72,64,57,-100,-100,-100,0,0,100,0.00,40.00,7,2,0,0.00
2012-9-28,66,58,54,-100,-100,-100,0,0,100,0.00,40.00,3,1,0,0.00
2012-9-29,66,55,47,-100,-100,-100,0,0,100,0.00,40.00,5,0,0,0.00
2012-9-30,61,53,47,-100,-100,-100,0,0,100,0.00,40.00,7,1,0,0.00
2012-10-1,63,58,50,-100,-100,-100,0,0,100,0.00,40.00,5,2,0,0.00
2012-10-2,60,57,52,-100,-100,-100,0,0,100,0.00,40.00,9,3,0,0.00
2012-10-3,65,60,57,-100,-100,-100,0,0,100,0.00,40.00,4,1,0,0.00
2012-10-4,77,67,56,-100,-100,-100,0,0,100,0.00,40.00,5,1,0,0.00
2012-10-5,55,48,47,-100,-100,-100,0,0,100,0.00,40.00,3,0,0,0.00
2012-10-6,53,45,38,-100,-100,-100,0,0,100,0.00,40.00,8,1,0,0.00
2012-10-7,44,42,39,-100,-100,-100,0,0,100,0.00,40.00,0,0,0,0.00
2012-10-22,67,57,47,-100,-100,-100,0,0,100,0.00,40.00,7,1,0,0.00
2012-10-23,66,62,60,-100,-100,-100,0,0,100,0.00,40.00,6,1,0,0.00
2012-10-24,78,69,60,-100,-100,-100,0,0,100,0.00,40.00,9,2,0,0.00
2012-10-25,77,67,57,-100,-100,-100,0,0,100,0.00,40.00,11,2,0,0.00
2012-10-26,69,48,42,-100,-100,-100,0,0,100,0.00,40.00,12,4,0,0.00
2012-10-27,52,44,35,-100,-100,-100,0,0,100,0.00,40.00,15,5,0,0.00
2012-10-28,41,38,36,-100,-100,-100,0,0,100,0.00,40.00,10,5,0,0.00
2012-10-29,47,41,35,-100,-100,-100,0,0,100,0.00,40.00,18,6,0,0.00
2012-10-30,41,39,37,-100,-100,-100,0,0,100,0.00,40.00,22,8,0,0.00
2012-10-31,40,39,38,-100,-100,-100,0,0,100,0.00,40.00,8,3,0,0.00
2012-11-1,41,40,36,-100,-100,-100,0,0,100,0.00,40.00,5,1,0,0.00
2012-11-2,39,37,35,-100,-100,-100,0,0,100,0.00,40.00,1,0,0,0.00
2012-11-3,39,34,30,-100,-100,-100,0,0,100,0.00,40.00,4,1,0,0.00
2012-11-4,39,33,29,-100,-100,-100,0,0,100,0.00,40.00,6,1,0,0.00
2012-11-5,44,34,23,-100,-100,-100,0,0,100,0.00,40.00,7,1,0,0.00
2012-11-6,49,34,26,-100,-100,-100,0,0,100,0.00,40.00,6,1,0,0.00
2012-11-7,39,37,34,-100,-100,-100,0,0,100,0.00,40.00,4,1,0,0.00
2012-11-8,40,32,28,-100,-100,-100,0,0,100,0.00,40.00,0,0,0,0.00
2012-11-9,61,46,30,-100,-100,-100,0,0,100,0.00,40.00,9,2,0,0.00
2012-11-10,63,56,51,-100,-100,-100,0,0,100,0.00,40.00,9,3,0,0.00
2012-11-11,69,60,51,-100,-100,-100,0,0,100,0.00,40.00,19,6,0,0.00
2012-11-12,61,41,32,-100,-100,-100,0,0,100,0.00,40.00,15,4,0,0.00
2012-11-13,34,30,28,-100,-100,-100,0,0,100,0.00,40.00,7,2,0,0.00
2012-11-14,29,26,24,-100,-100,-100,0,0,100,0.00,40.00,2,0,0,0.00
2012-11-15,30,27,25,-100,-100,-100,0,0,100,0.00,40.00,1,0,0,0.00
2012-11-16,37,30,26,-100,-100,-100,0,0,100,0.00,40.00,0,0,0,0.00
2012-11-17,37,28,27,-100,-100,-100,0,0,100,0.00,40.00,0,0,0,0.00
2012-11-18,56,41,31,-100,-100,-100,0,0,100,0.00,40.00,5,1,0,0.00
2012-11-19,56,43,31,-100,-100,-100,0,0,100,0.00,40.00,2,0,0,0.00
2012-11-20,55,49,43,-100,-100,-100,0,0,100,0.00,40.00,3,0,0,0.00
2012-11-21,58,45,35,-100,-100,-100,0,0,100,0.00,40.00,5,0,0,0.00
2012-11-22,61,49,36,-100,-100,-100,0,0,100,0.00,40.00,15,3,0,0.00
2012-11-23,54,36,28,-100,-100,-100,0,0,100,0.00,40.00,14,7,22,0.00
2012-11-24,29,28,27,-100,-100,-100,0,0,100,0.00,40.00,10,4,0,0.00
2012-11-25,41,30,28,-100,-100,-100,0,0,100,0.00,40.00,9,4,0,0.00
2012-11-26,42,35,28,-100,-100,-100,0,0,100,0.00,40.00,7,1,0,0.00
2012-11-27,38,32,28,-100,-100,-100,0,0,100,0.00,40.00,6,1,0,0.00
2012-11-28,42,33,27,-100,-100,-100,0,0,100,0.00,40.00,7,2,0,0.00
2012-11-29,42,34,30,-100,-100,-100,0,0,100,0.00,40.00,4,1,0,0.00
2012-11-30,55,44,34,-100,-100,-100,0,0,100,0.00,40.00,7,1,0,0.00
2012-12-1,61,47,32,-100,-100,-100,0,0,100,0.00,40.00,9,2,0,0.00
2012-12-2,59,56,53,-100,-100,-100,0,0,100,0.00,40.00,9,2,0,0.00
2012-12-3,66,60,55,-100,-100,-100,0,0,100,0.00,40.00,11,3,0,0.00
2012-12-4,60,51,43,-100,-100,-100,0,0,100,0.00,40.00,11,2,0,0.00
2012-12-5,42,36,29,-100,-100,-100,0,0,100,0.00,40.00,9,2,0,0.00
2012-12-6,44,34,27,-100,-100,-100,0,0,100,0.00,40.00,5,1,0,0.00
2012-12-7,44,42,41,-100,-100,-100,0,0,100,0.00,40.00,5,1,0,0.00
2012-12-8,46,42,36,-100,-100,-100,0,0,100,0.00,40.00,9,2,0,0.00
2012-12-9,46,40,35,-100,-100,-100,0,0,100,0.00,40.00,11,3,0,0.00
2012-12-10,45,34,31,-100,-100,-100,0,0,100,0.00,40.00,11,4,0,0.00
2012-12-11,36,31,28,-100,-100,-100,0,0,100,0.00,40.00,10,3,0,0.00
2012-12-12,43,32,25,-100,-100,-100,0,0,100,0.00,40.00,7,1,0,0.00
2012-12-13,47,35,26,-100,-100,-100,0,0,100,0.00,40.00,8,2,0,0.00
2012-12-14,49,39,31,-100,-100,-100,0,0,100,0.00,40.00,6,1,0,0.00
2012-12-15,52,43,36,-100,-100,-100,0,0,100,0.00,40.00,12,3,0,0.00
2012-12-16,52,49,40,-100,-100,-100,0,0,100,0.00,40.00,11,4,0,0.00
2012-12-17,41,39,38,-100,-100,-100,0,0,100,0.00,40.00,4,2,0,0.00
2012-12-18,40,37,33,-100,-100,-100,0,0,100,0.00,40.00,7,3,0,0.00
2012-12-19,45,41,39,-100,-100,-100,0,0,100,0.00,40.00,9,2,0,0.00
2012-12-20,52,41,33,-100,-100,-100,0,0,100,0.00,40.00,15,6,0,0.00
2012-12-21,34,31,27,-100,-100,-100,0,0,100,0.00,40.00,16,8,0,0.00
2012-12-22,31,26,22,-100,-100,-100,0,0,100,0.00,40.00,11,3,0,0.00
2012-12-23,32,25,19,-100,-100,-100,0,0,100,0.00,40.00,4,0,0,0.00
2012-12-24,32,30,27,-100,-100,-100,0,0,100,0.00,40.00,7,2,0,0.00
2012-12-25,34,30,27,-100,-100,-100,0,0,100,0.00,40.00,13,4,0,0.00
2012-12-26,31,29,27,-100,-100,-100,0,0,100,0.00,40.00,19,10,0,0.00
2012-12-27,31,26,24,-100,-100,-100,0,0,100,0.00,40.00,11,2,0,0.00
2012-12-28,35,28,22,-100,-100,-100,0,0,100,0.00,40.00,8,2,0,0.00
2012-12-29,32,28,27,-100,-100,-100,0,0,100,0.00,40.00,5,2,0,0.00
2012-12-30,28,23,19,-100,-100,-100,0,0,100,0.00,40.00,10,4,0,0.00
2012-12-31,34,30,24,-100,-100,-100,0,0,100,0.00,40.00,8,4,0,0.00
2013-1-1,31,27,19,-100,-100,-100,0,0,100,0.00,40.00,7,1,0,0.00